Home   Weather   Liberia   Past weeks

Flag for Costa Rica Past Weather in Liberia, Costa Rica — Yesterday and Last 2 Weeks

Now
75 °F

Clear.


Feels Like: 76 °F
Forecast: 75 / 90 °F
Wind: 8 mph from East

Location: Liberia/Tomas Guard

Current Time: Sep 30, 2016 at 11:01:26 PM

Latest Report: Sep 30, 2016 at 10:00 PM


Visibility: 10 mi

Pressure: 29.91 "Hg

Humidity: 78%

Dew Point: 68 °F

Location of LiberiaLocation

Past Weather in Liberia — Graph

°F

Liberia Temperature Yesterday

Maximum temperature yesterday: 91 °F (at 1:00 PM)
Minimum temperature yesterday: 73 °F (at 12:00 AM)
Average temperature yesterday: 83 °F

High & Low Weather Summary for the Past Weeks

 TemperatureHumidityPressure
High95 °F (Sep 19, 2:00 PM)100% (Sep 15, 10:00 PM)29.95 "Hg (Sep 15, 10:00 PM)
Low72 °F (Sep 17, 6:00 AM)47% (Sep 19, 2:00 PM)29.73 "Hg (Sep 19, 4:00 PM)
Average81 °F80%29.86 "Hg
* Reported Sep 15 10:00 PM — Sep 30 10:00 PM, Liberia, Weather by CustomWeather, © 2016

Note: Actual official high and low records may vary slightly from our data, if they occured in-between our weather recording intervals... More about our weather records

Advertising

Liberia Weather History for the Previous 24 Hours

Scroll right to see more
 ConditionsComfort  
Time TempWeatherWind HumidityBarometerVisibility
10:00 PM
Fri, Sep 30
75 °FClear.8 mph78%29.91 "Hg10 mi
9:00 PM77 °FClear.7 mph79%29.90 "Hg10 mi
8:00 PM77 °FClear.3 mph79%29.88 "Hg10 mi
7:00 PM77 °FClear.8 mph74%29.85 "Hg10 mi
6:00 PM81 °FPassing clouds.12 mph70%29.83 "HgN/A
5:00 PM84 °FBroken clouds.5 mph74%29.81 "HgN/A
4:00 PM86 °FSunny.3 mph70%29.79 "Hg10 mi
3:00 PM88 °FBroken clouds.9 mph62%29.81 "HgN/A
2:00 PM88 °FBroken clouds.9 mph59%29.81 "HgN/A
1:00 PM90 °FBroken clouds.12 mph55%29.82 "HgN/A
12:00 PM90 °FBroken clouds.8 mph55%29.84 "HgN/A
11:00 AM90 °FOvercast.15 mph55%29.87 "HgN/A
10:00 AM88 °FOvercast.16 mph59%29.89 "HgN/A
9:00 AM86 °FOvercast.13 mph66%29.90 "HgN/A
8:00 AM81 °FOvercast.No wind84%29.89 "HgN/A
7:00 AM79 °FOvercast.3 mph89%29.88 "HgN/A
6:00 AM75 °FScattered clouds.No wind94%29.87 "HgN/A
12:00 AM79 °FClear.No wind89%29.92 "Hg10 mi
11:00 PM
Thu, Sep 29
79 °FPassing clouds.2 mph89%29.93 "HgN/A
Weather by CustomWeather, © 2016

See weather overviewHow to use our weather pages